Starlink 11366

operational
NORAD ID: 61693 Int'l Des: 2024-195 Owner: SPXS Country: US Constellation: starlink
LEOCIRCULAR

Über Starlink 11366

Beschreibung wird geladen...

Live-Position

3D-Globus wird geladen...

Nächste Überflüge

Höhenverlauf

Altitude vs Time

uPlot chart will show altitude changes over time

Zweizeiliger Elementsatz

1 61693U 24195G 25304.25109747 .00000642 00000-0 10162-4 0 9991
2 61693 53.1590 304.3592 0001803 103.6474 256.4745 15.69712727 58703
Epoch: 31. Okt. 2025 • Age: 14 hours

Aktueller Status

Höhe 361.5 km
Geschwindigkeit 7.70 km/s
Subsatellitenpunkt 34.04°N, 8.15°W
Startdatum 30. Okt. 2024
Alter 1 years
Typ internet

Technische Details

Klassifizierung Payload
Masse 960.00 kg
Trockenmasse 910.00 kg
Gesamtmasse 960.00 kg
Länge 0.30 m
Durchmesser 4.10 m
Spannweite 29.00 m
Form Box + pan
Hersteller SPXS
Bus-Typ Starlink V2MD
Phasenstatus In Orbit
Besitzer/Staat SPXS/US

Große Konstellationen

Loading constellations...